| time (UTC) | temp F | wind direction | speed MPH | gust MPH | rain 1hr in | rain 24hr in | rain mn in | humidity % | barometer mb |
| 20260504043526 | 35 | 0.0 | 0.0 | 0.00 | 0.00 | 0.00 | 62 | 1012.9 | |
| 20260504043047 | 35 | 0.0 | 0.0 | 0.00 | 0.00 | 0.00 | 62 | 1012.8 | |
| 20260504042546 | 35 | 0.0 | 0.0 | 0.00 | 0.00 | 0.00 | 62 | 1012.8 | |
| 20260504042026 | 36 | 0.0 | 0.0 | 0.00 | 0.00 | 0.00 | 62 | 1012.8 | |
| 20260504041526 | 36 | 0.0 | 0.0 | 0.00 | 0.00 | 0.00 | 62 | 1012.8 | |
| 20260504041026 | 35 | 0.0 | 0.0 | 0.00 | 0.00 | 0.00 | 62 | 1012.9 | |
| 20260504040526 | 35 | 0.0 | 0.0 | 0.00 | 0.00 | 0.00 | 62 | 1012.8 | |
| 20260504040027 | 35 | 0.0 | 0.0 | 0.00 | 0.00 | 0.00 | 61 | 1012.8 | |
| 20260504035527 | 35 | 0.0 | 0.0 | 0.00 | 0.00 | 0.00 | 61 | 1012.7 | |
| 20260504035047 | 35 | 0.0 | 0.0 | 0.00 | 0.00 | 0.00 | 61 | 1012.7 | |
| 20260504034526 | 36 | 0.0 | 0.0 | 0.00 | 0.00 | 0.00 | 61 | 1012.6 | |
| 20260504034027 | 36 | 0.0 | 0.0 | 0.00 | 0.00 | 0.00 | 61 | 1012.5 | |
| 20260504033527 | 36 | 0.0 | 0.0 | 0.00 | 0.00 | 0.00 | 61 | 1012.3 | |
| 20260504033026 | 36 | 0.0 | 0.0 | 0.00 | 0.00 | 0.00 | 61 | 1012.4 | |
| 20260504032527 | 36 | 0.0 | 0.0 | 0.00 | 0.00 | 0.00 | 62 | 1012.4 | |
| 20260504032027 | 36 | 0.0 | 0.0 | 0.00 | 0.00 | 0.00 | 60 | 1012.3 | |
| 20260504031547 | 36 | 0.0 | 0.0 | 0.00 | 0.00 | 0.00 | 60 | 1012.2 | |
| 20260504031026 | 36 | 0.0 | 0.0 | 0.00 | 0.00 | 0.00 | 60 | 1012.1 | |
| 20260504030527 | 36 | 0.0 | 0.0 | 0.00 | 0.00 | 0.00 | 60 | 1012.2 | |
| 20260504030027 | 36 | 0.0 | 0.0 | 0.00 | 0.00 | 0.00 | 59 | 1012.2 | |
| 20260504025527 | 36 | 0.0 | 0.0 | 0.00 | 0.00 | 0.00 | 59 | 1012.3 | |
| 20260504025026 | 36 | 0.0 | 0.0 | 0.00 | 0.00 | 0.00 | 58 | 1012.2 | |
| 20260504024527 | 36 | 0.0 | 0.0 | 0.00 | 0.00 | 0.00 | 58 | 1012.2 | |
| 20260504024027 | 36 | 0.0 | 0.0 | 0.00 | 0.00 | 0.00 | 57 | 1012.2 | |
| 20260504023547 | 37 | 0.0 | 0.0 | 0.00 | 0.00 | 0.00 | 56 | 1012.2 | |
| 20260504023026 | 37 | 0.0 | 0.0 | 0.00 | 0.00 | 0.00 | 56 | 1012.2 | |
| 20260504022526 | 37 | 0.0 | 0.0 | 0.00 | 0.00 | 0.00 | 57 | 1012.2 | |
| 20260504022026 | 37 | 0.0 | 0.0 | 0.00 | 0.00 | 0.00 | 57 | 1012.2 | |
| 20260504021527 | 38 | 0.0 | 0.0 | 0.00 | 0.00 | 0.00 | 57 | 1012.1 | |
| 20260504021047 | 38 | 0.0 | 1.0 | 0.00 | 0.00 | 0.00 | 57 | 1012.2 | |
| 20260504020527 | 38 | 0.0 | 0.0 | 0.00 | 0.00 | 0.00 | 57 | 1012.1 | |
| 20260504020027 | 38 | 0.0 | 1.0 | 0.00 | 0.00 | 0.00 | 55 | 1012.1 | |
| 20260504015526 | 38 | 0.0 | 2.0 | 0.00 | 0.00 | 0.00 | 55 | 1012.0 | |
| 20260504015047 | 37 | 0.0 | 2.0 | 0.00 | 0.00 | 0.00 | 56 | 1012.0 | |
| 20260504014547 | 37 | 0.0 | 2.0 | 0.00 | 0.00 | 0.00 | 57 | 1011.9 | |
| 20260504014026 | 37 | 0.0 | 2.0 | 0.00 | 0.00 | 0.00 | 57 | 1011.9 | |
| 20260504013547 | 37 | 0.0 | 2.0 | 0.00 | 0.00 | 0.00 | 57 | 1011.8 | |
| 20260504013047 | 38 | 0.0 | 2.0 | 0.00 | 0.00 | 0.00 | 56 | 1011.8 | |
| 20260504012547 | 38 | 0.0 | 1.0 | 0.00 | 0.00 | 0.00 | 55 | 1011.8 | |
| 20260504012027 | 38 | 0.0 | 0.0 | 0.00 | 0.00 | 0.00 | 54 | 1011.7 | |
| 20260504011547 | 38 | 0.0 | 0.0 | 0.00 | 0.00 | 0.00 | 54 | 1011.6 | |
| 20260504011027 | 39 | 0.0 | 0.0 | 0.00 | 0.00 | 0.00 | 53 | 1011.6 | |
| 20260504010526 | 39 | 0.0 | 0.0 | 0.00 | 0.00 | 0.00 | 53 | 1011.6 | |
| 20260504010027 | 40 | 0.0 | 0.0 | 0.00 | 0.00 | 0.00 | 52 | 1011.5 | |
| 20260504005526 | 40 | 0.0 | 0.0 | 0.00 | 0.00 | 0.00 | 52 | 1011.3 | |
| 20260504005047 | 41 | 0.0 | 0.0 | 0.00 | 0.00 | 0.00 | 51 | 1011.3 | |
| 20260504004526 | 41 | 0.0 | 0.0 | 0.00 | 0.00 | 0.00 | 51 | 1011.1 | |
| 20260504004047 | 42 | 0.0 | 0.0 | 0.00 | 0.00 | 0.00 | 50 | 1011.1 | |
| 20260504003546 | 42 | 0.0 | 1.0 | 0.00 | 0.00 | 0.00 | 47 | 1011.1 | |
| 20260504003026 | 43 | 0.0 | 0.0 | 0.00 | 0.00 | 0.00 | 46 | 1010.9 | |
| 20260504002526 | 43 | 0.0 | 0.0 | 0.00 | 0.00 | 0.00 | 47 | 1010.9 | |
| 20260504002026 | 44 | 0.0 | 0.0 | 0.00 | 0.00 | 0.00 | 44 | 1010.9 | |
| 20260504001526 | 45 | 0.0 | 0.0 | 0.00 | 0.00 | 0.00 | 43 | 1010.9 | |
| 20260504001026 | 45 | 0.0 | 0.0 | 0.00 | 0.00 | 0.00 | 43 | 1010.7 | |
| 20260504000526 | 46 | 0.0 | 0.0 | 0.00 | 0.00 | 0.00 | 45 | 1010.8 | |
| 20260504000026 | 47 | 0.0 | 0.0 | 0.00 | 0.00 | 0.00 | 44 | 1010.6 | |
| 20260503235526 | 47 | 0.0 | 0.0 | 0.00 | 0.00 | 0.00 | 37 | 1010.7 | |
| 20260503235026 | 48 | 355 | 1.0 | 2.0 | 0.00 | 0.00 | 0.00 | 37 | 1010.6 |
| 20260503234526 | 48 | 0.0 | 1.0 | 0.00 | 0.00 | 0.00 | 35 | 1010.6 | |
| 20260503234026 | 49 | 0.0 | 2.0 | 0.00 | 0.00 | 0.00 | 33 | 1010.6 | |
| 20260503233526 | 49 | 0.0 | 1.0 | 0.00 | 0.00 | 0.00 | 32 | 1010.6 | |
| 20260503233026 | 50 | 0.0 | 2.0 | 0.00 | 0.00 | 0.00 | 31 | 1010.5 | |
| 20260503232547 | 50 | 346 | 1.0 | 4.0 | 0.00 | 0.00 | 0.00 | 30 | 1010.5 |
| 20260503232026 | 50 | 338 | 1.0 | 7.0 | 0.00 | 0.00 | 0.00 | 31 | 1010.5 |
| 20260503231526 | 51 | 355 | 1.0 | 4.0 | 0.00 | 0.00 | 0.00 | 32 | 1010.4 |
| 20260503231026 | 51 | 344 | 1.0 | 6.0 | 0.00 | 0.00 | 0.00 | 33 | 1010.4 |
| 20260503230526 | 51 | 352 | 4.0 | 11.0 | 0.00 | 0.00 | 0.00 | 27 | 1010.4 |
| 20260503230026 | 51 | 346 | 4.0 | 9.0 | 0.00 | 0.00 | 0.00 | 29 | 1010.4 |
| 20260503225526 | 51 | 335 | 2.0 | 7.0 | 0.00 | 0.00 | 0.00 | 29 | 1010.3 |
| 20260503225026 | 51 | 339 | 5.0 | 11.0 | 0.00 | 0.00 | 0.00 | 29 | 1010.3 |
| 20260503224606 | 51 | 354 | 4.0 | 12.0 | 0.00 | 0.00 | 0.00 | 29 | 1010.3 |
| 20260503224026 | 51 | 327 | 2.0 | 9.0 | 0.00 | 0.00 | 0.00 | 31 | 1010.2 |
| 20260503223526 | 51 | 339 | 2.0 | 10.0 | 0.00 | 0.00 | 0.00 | 29 | 1010.3 |
| 20260503223026 | 51 | 351 | 1.0 | 3.0 | 0.00 | 0.00 | 0.00 | 29 | 1010.3 |
| 20260503222526 | 51 | 345 | 3.0 | 9.0 | 0.00 | 0.00 | 0.00 | 29 | 1010.3 |
| 20260503222026 | 52 | 345 | 4.0 | 12.0 | 0.00 | 0.00 | 0.00 | 29 | 1010.2 |
| 20260503221526 | 52 | 348 | 5.0 | 12.0 | 0.00 | 0.00 | 0.00 | 29 | 1010.2 |
| 20260503221026 | 52 | 357 | 5.0 | 11.0 | 0.00 | 0.00 | 0.00 | 29 | 1010.3 |
| 20260503220526 | 52 | 344 | 4.0 | 11.0 | 0.00 | 0.00 | 0.00 | 31 | 1010.3 |
| 20260503220046 | 52 | 346 | 5.0 | 10.0 | 0.00 | 0.00 | 0.00 | 30 | 1010.2 |
| 20260503215526 | 52 | 352 | 6.0 | 12.0 | 0.00 | 0.00 | 0.00 | 27 | 1010.3 |
| 20260503215026 | 52 | 345 | 3.0 | 6.0 | 0.00 | 0.00 | 0.00 | 29 | 1010.2 |
| 20260503214526 | 52 | 336 | 5.0 | 11.0 | 0.00 | 0.00 | 0.00 | 28 | 1010.2 |
| 20260503214026 | 52 | 341 | 4.0 | 10.0 | 0.00 | 0.00 | 0.00 | 31 | 1010.3 |
| 20260503213526 | 52 | 341 | 5.0 | 12.0 | 0.00 | 0.00 | 0.00 | 28 | 1010.2 |
| 20260503213026 | 52 | 334 | 4.0 | 8.0 | 0.00 | 0.00 | 0.00 | 27 | 1010.1 |
| 20260503212526 | 52 | 340 | 5.0 | 11.0 | 0.00 | 0.00 | 0.00 | 27 | 1010.0 |
| 20260503212026 | 52 | 344 | 7.0 | 13.0 | 0.00 | 0.00 | 0.00 | 27 | 1009.9 |
| 20260503211526 | 52 | 343 | 8.0 | 16.0 | 0.00 | 0.00 | 0.00 | 27 | 1010.0 |
| 20260503211026 | 52 | 344 | 7.0 | 14.0 | 0.00 | 0.00 | 0.00 | 28 | 1009.9 |
| 20260503210526 | 52 | 342 | 7.0 | 16.0 | 0.00 | 0.00 | 0.00 | 26 | 1009.8 |
| 20260503210026 | 53 | 343 | 8.0 | 20.0 | 0.00 | 0.00 | 0.00 | 25 | 1009.9 |
| 20260503205526 | 53 | 343 | 4.0 | 9.0 | 0.00 | 0.00 | 0.00 | 27 | 1009.7 |
| 20260503205026 | 53 | 343 | 4.0 | 13.0 | 0.00 | 0.00 | 0.00 | 32 | 1009.7 |
| 20260503204526 | 52 | 328 | 4.0 | 13.0 | 0.00 | 0.00 | 0.00 | 31 | 1009.8 |
| 20260503204147 | 52 | 314 | 4.0 | 10.0 | 0.00 | 0.00 | 0.00 | 31 | 1009.8 |
| 20260503203526 | 51 | 342 | 4.0 | 9.0 | 0.00 | 0.00 | 0.00 | 32 | 1009.7 |
| 20260503203026 | 51 | 337 | 4.0 | 11.0 | 0.00 | 0.00 | 0.00 | 31 | 1009.7 |
| 20260503202526 | 52 | 333 | 5.0 | 13.0 | 0.00 | 0.00 | 0.00 | 29 | 1009.6 |
| 20260503202026 | 52 | 337 | 4.0 | 11.0 | 0.00 | 0.00 | 0.00 | 30 | 1009.6 |
| 20260503201526 | 52 | 298 | 3.0 | 10.0 | 0.00 | 0.00 | 0.00 | 30 | 1009.6 |
| 20260503201025 | 52 | 335 | 4.0 | 11.0 | 0.00 | 0.00 | 0.00 | 31 | 1009.5 |
| 20260503200526 | 52 | 345 | 7.0 | 15.0 | 0.00 | 0.00 | 0.00 | 29 | 1009.5 |
| 20260503200026 | 52 | 338 | 5.0 | 11.0 | 0.00 | 0.00 | 0.00 | 29 | 1009.5 |
| 20260503195546 | 52 | 344 | 4.0 | 14.0 | 0.00 | 0.00 | 0.00 | 30 | 1009.4 |
| 20260503195026 | 52 | 344 | 6.0 | 12.0 | 0.00 | 0.00 | 0.00 | 30 | 1009.6 |
| 20260503194526 | 52 | 355 | 5.0 | 14.0 | 0.00 | 0.00 | 0.00 | 30 | 1009.5 |
| 20260503194025 | 51 | 355 | 5.0 | 17.0 | 0.00 | 0.00 | 0.00 | 31 | 1009.5 |
| 20260503193526 | 51 | 335 | 3.0 | 8.0 | 0.00 | 0.00 | 0.00 | 34 | 1009.5 |
| 20260503193026 | 51 | 343 | 4.0 | 11.0 | 0.00 | 0.00 | 0.00 | 31 | 1009.4 |
| 20260503192525 | 51 | 305 | 2.0 | 7.0 | 0.00 | 0.00 | 0.00 | 29 | 1009.5 |
| 20260503192026 | 51 | 323 | 3.0 | 10.0 | 0.00 | 0.00 | 0.00 | 30 | 1009.6 |
| 20260503191526 | 51 | 344 | 5.0 | 12.0 | 0.00 | 0.00 | 0.00 | 30 | 1009.6 |
| 20260503191026 | 51 | 340 | 3.0 | 8.0 | 0.00 | 0.00 | 0.00 | 33 | 1009.7 |
| 20260503190528 | 51 | 341 | 4.0 | 10.0 | 0.00 | 0.00 | 0.00 | 34 | 1009.6 |
| 20260503190026 | 51 | 346 | 6.0 | 18.0 | 0.00 | 0.00 | 0.00 | 31 | 1009.9 |
| 20260503185526 | 51 | 347 | 7.0 | 17.0 | 0.00 | 0.00 | 0.00 | 30 | 1009.8 |
| 20260503185026 | 52 | 338 | 5.0 | 11.0 | 0.00 | 0.00 | 0.00 | 32 | 1009.9 |
| 20260503184526 | 52 | 343 | 9.0 | 16.0 | 0.00 | 0.00 | 0.00 | 32 | 1009.8 |
| 20260503184026 | 52 | 340 | 5.0 | 11.0 | 0.00 | 0.00 | 0.00 | 32 | 1009.7 |
| 20260503183526 | 53 | 341 | 7.0 | 17.0 | 0.00 | 0.00 | 0.00 | 32 | 1009.8 |
| 20260503183026 | 53 | 350 | 6.0 | 13.0 | 0.00 | 0.00 | 0.00 | 35 | 1009.6 |
| 20260503182526 | 52 | 359 | 4.0 | 11.0 | 0.00 | 0.00 | 0.00 | 35 | 1009.6 |
| 20260503182026 | 52 | 321 | 4.0 | 12.0 | 0.00 | 0.00 | 0.00 | 31 | 1009.6 |
| 20260503181526 | 52 | 338 | 7.0 | 19.0 | 0.00 | 0.01 | 0.00 | 30 | 1009.5 |
| 20260503181046 | 52 | 335 | 5.0 | 12.0 | 0.00 | 0.01 | 0.00 | 32 | 1009.6 |
| 20260503180525 | 52 | 335 | 5.0 | 15.0 | 0.00 | 0.01 | 0.00 | 31 | 1009.7 |
| 20260503180026 | 52 | 339 | 5.0 | 16.0 | 0.00 | 0.01 | 0.00 | 31 | 1009.5 |
| 20260503175525 | 52 | 319 | 3.0 | 12.0 | 0.00 | 0.01 | 0.00 | 33 | 1009.4 |
| 20260503175026 | 52 | 341 | 7.0 | 15.0 | 0.00 | 0.01 | 0.00 | 29 | 1009.4 |
| 20260503174546 | 52 | 347 | 8.0 | 18.0 | 0.00 | 0.01 | 0.00 | 29 | 1009.4 |
| 20260503174025 | 52 | 354 | 7.0 | 20.0 | 0.00 | 0.01 | 0.00 | 30 | 1009.4 |
| 20260503173525 | 52 | 326 | 3.0 | 10.0 | 0.00 | 0.02 | 0.00 | 30 | 1009.4 |
| 20260503173026 | 52 | 330 | 4.0 | 11.0 | 0.00 | 0.02 | 0.00 | 33 | 1009.4 |
| 20260503172525 | 52 | 331 | 4.0 | 11.0 | 0.00 | 0.02 | 0.00 | 32 | 1009.3 |
| 20260503172025 | 52 | 346 | 6.0 | 16.0 | 0.00 | 0.02 | 0.00 | 31 | 1009.4 |
| 20260503171525 | 52 | 341 | 7.0 | 16.0 | 0.00 | 0.03 | 0.00 | 30 | 1009.3 |
| 20260503171025 | 52 | 350 | 7.0 | 15.0 | 0.00 | 0.03 | 0.00 | 30 | 1009.4 |
| 20260503170525 | 52 | 332 | 8.0 | 19.0 | 0.00 | 0.03 | 0.00 | 31 | 1009.2 |
| 20260503150527 | 50 | 344 | 5.0 | 13.0 | 0.00 | 0.05 | 0.00 | 39 | 1009.5 |
| 20260503131047 | 44 | 351 | 3.0 | 6.0 | 0.00 | 0.05 | 0.00 | 54 | 1010.2 |
| 20260503130527 | 44 | 347 | 2.0 | 5.0 | 0.00 | 0.05 | 0.00 | 55 | 1010.2 |
| 20260503110527 | 36 | 354 | 1.0 | 4.0 | 0.00 | 0.15 | 0.00 | 45 | 1010.2 |
| 20260503110128 | 36 | 0.0 | 2.0 | 0.00 | 0.16 | 0.00 | 44 | 1010.2 | |
| 20260503081526 | 36 | 353 | 1.0 | 4.0 | 0.00 | 0.25 | 0.00 | 43 | 1010.6 |
| 20260503081026 | 35 | 0.0 | 5.0 | 0.00 | 0.25 | 0.00 | 44 | 1010.6 | |
| 20260503080526 | 35 | 0.0 | 0.0 | 0.00 | 0.25 | 0.00 | 44 | 1010.7 | |
| 20260503072526 | 36 | 0.0 | 0.0 | 0.00 | 0.26 | 0.00 | 45 | 1011.2 | |
| 20260503072026 | 37 | 0.0 | 0.0 | 0.00 | 0.26 | 0.00 | 45 | 1011.1 | |
| 20260503071526 | 37 | 0.0 | 0.0 | 0.00 | 0.27 | 0.00 | 46 | 1011.2 | |
| 20260503071026 | 36 | 0.0 | 0.0 | 0.00 | 0.27 | 0.00 | 48 | 1011.2 | |
| 20260503070546 | 37 | 0.0 | 0.0 | 0.00 | 0.27 | 0.00 | 49 | 1011.2 | |
| 20260503055026 | 38 | 0.0 | 0.0 | 0.00 | 0.28 | 0.00 | 60 | 1012.1 | |
| 20260503054606 | 38 | 0.0 | 0.0 | 0.00 | 0.28 | 0.00 | 60 | 1012.1 | |
| 20260503054026 | 38 | 0.0 | 1.0 | 0.00 | 0.28 | 0.00 | 60 | 1012.2 | |
| 20260503053547 | 38 | 0.0 | 0.0 | 0.00 | 0.28 | 0.00 | 60 | 1012.3 | |
| 20260503053026 | 38 | 0.0 | 0.0 | 0.00 | 0.28 | 0.00 | 60 | 1012.3 | |
| 20260503052526 | 38 | 0.0 | 0.0 | 0.00 | 0.28 | 0.00 | 61 | 1012.4 | |
| 20260503052026 | 38 | 0.0 | 0.0 | 0.00 | 0.28 | 0.00 | 61 | 1012.4 | |
| 20260503051526 | 38 | 0.0 | 1.0 | 0.00 | 0.28 | 0.00 | 61 | 1012.5 | |
| 20260503051026 | 38 | 0.0 | 0.0 | 0.00 | 0.28 | 0.00 | 61 | 1012.6 | |
| 20260503050546 | 38 | 0.0 | 0.0 | 0.00 | 0.28 | 0.00 | 61 | 1012.6 | |
| 20260503050026 | 38 | 0.0 | 0.0 | 0.00 | 0.28 | 0.00 | 61 | 1012.4 | |
| 20260503045526 | 38 | 0.0 | 0.0 | 0.00 | 0.28 | 0.00 | 61 | 1012.5 | |
| 20260503045026 | 39 | 0.0 | 0.0 | 0.00 | 0.28 | 0.00 | 61 | 1012.6 | |
| 20260503044546 | 39 | 0.0 | 0.0 | 0.00 | 0.28 | 0.00 | 62 | 1012.6 | |
| 20260503044026 | 39 | 0.0 | 0.0 | 0.00 | 0.28 | 0.00 | 62 | 1012.5 |